Weather History for Yuma MCAS, AZ

Change the Weather History Date:

Wednesday, July 31, 2013

  Actual Average Record
Temperature  
Mean Temperature 98 °F 95 °F  
Max Temperature 110 °F 107 °F 119 °F (1957)
Min Temperature 85 °F 83 °F 69 °F (1944)
Degree Days  
Heating Degree Days 0 0  
Month to date heating degree days 0 0  
Since 1 June heating degree days 0 0  
Since 1 July heating degree days 0 0  
Cooling Degree Days 33 30  
Month to date cooling degree days 946 913  
Year to date cooling degree days 2812 2546  
Since 1 June cooling degree days 1751 1634  
Growing Degree Days 48 (Base 50)    
Moisture  
Dew Point 50 °F    
Average Humidity 23    
Maximum Humidity 35    
Minimum Humidity 11    
Precipitation  
Precipitation 0.00 in 0.02 in 0.92 in (1916)
Month to date precipitation 0.47 0.29  
Year to date precipitation 1.58 1.62  
Sea Level Pressure  
Sea Level Pressure 29.85 in    
Wind  
Wind Speed 5 mph (South)    
Max Wind Speed 14 mph    
Max Gust Speed 20 mph    
Visibility 10 miles    
Events      
T = Trace of Precipitation, MM = Missing Value Source: NWS Daily Summary

Daily Weather History Graph

Daily Weather History Graph

Search for Another Location

Airport:

Trip Planner

Search our weather history database for the weather conditions in past years. The results will help you decide how hot, cold, wet, or windy it might be!

Date:

Astronomy

Jul. 31, 2013 Rise Set
Actual Time 5:52 AM MST 7:37 PM MST
Civil Twilight 5:25 AM MST 8:03 PM MST
Nautical Twilight 4:52 AM MST 8:36 PM MST
Astronomical Twilight 4:18 AM MST 9:10 PM MST
Moon 12:50 AM MST (7/31) 2:56 PM MST (7/31)
Length of Visible Light 14h 38m
Length of Day
13h 45m
Waning Crescent, 31% of the Moon is Illuminated
Jul 31
Waning Crescent
Aug 6
New
Aug 14
First Quarter
Aug 20
Full
Aug 28
Last Quarter

Hourly Weather History & Observations

Time (MST) Temp. Heat Index Dew Point Humidity Pressure Visibility Wind Dir Wind Speed Gust Speed Precip Events Conditions
12:57 AM 89.1 °F - 52.0 °F 28% 29.88 in 10.0 mi SSE 3.5 mph - N/A   Partly Cloudy
1:57 AM 89.1 °F 86.7 °F 53.1 °F 29% 29.87 in 10.0 mi SE 5.8 mph - N/A   Clear
2:57 AM 86.0 °F 84.5 °F 55.0 °F 35% 29.86 in 10.0 mi Calm Calm - N/A   Clear
3:57 AM 86.0 °F 84.7 °F 55.9 °F 36% 29.86 in 10.0 mi Calm Calm - N/A   Partly Cloudy
4:57 AM 86.0 °F 84.2 °F 54.0 °F 33% 29.88 in 10.0 mi NE 4.6 mph - N/A   Scattered Clouds
5:57 AM 86.0 °F 84.2 °F 54.0 °F 33% 29.90 in 10.0 mi Calm Calm - N/A   Scattered Clouds
6:57 AM 86.0 °F 84.5 °F 55.0 °F 35% 29.91 in 10.0 mi Calm Calm - N/A   Mostly Cloudy
7:57 AM 89.1 °F 87.7 °F 57.0 °F 34% 29.92 in 10.0 mi Calm Calm - N/A   Mostly Cloudy
8:57 AM 91.9 °F - 48.9 °F 23% 29.94 in 10.0 mi South 4.6 mph - N/A   Mostly Cloudy
9:57 AM 93.0 °F - 52.0 °F 25% 29.93 in 10.0 mi SSW 4.6 mph - N/A   Mostly Cloudy
10:57 AM 98.1 °F - 52.0 °F 21% 29.92 in 10.0 mi SSW 5.8 mph - N/A   Mostly Cloudy
11:57 AM 102.0 °F - 46.9 °F 16% 29.90 in 10.0 mi South 9.2 mph - N/A   Mostly Cloudy
12:57 PM 105.1 °F - 44.1 °F 13% 29.88 in 10.0 mi SSE 5.8 mph - N/A   Mostly Cloudy
1:57 PM 106.0 °F - 46.0 °F 13% 29.85 in 10.0 mi South 8.1 mph - N/A   Mostly Cloudy
2:57 PM 108.0 °F - 45.0 °F 12% 29.83 in 10.0 mi South 8.1 mph - N/A   Mostly Cloudy
3:57 PM 109.0 °F - 44.1 °F 11% 29.80 in 10.0 mi SSE 9.2 mph - N/A   Mostly Cloudy
4:57 PM 108.0 °F - 50.0 °F 15% 29.77 in 10.0 mi South 11.5 mph - N/A   Mostly Cloudy
5:57 PM 108.0 °F - 48.0 °F 13% 29.76 in 10.0 mi South 12.7 mph - N/A   Mostly Cloudy
6:57 PM 105.1 °F - 51.1 °F 16% 29.77 in 10.0 mi South 9.2 mph - N/A   Scattered Clouds
7:57 PM 102.0 °F - 50.0 °F 17% 29.77 in 10.0 mi South 8.1 mph - N/A   Scattered Clouds
8:57 PM 98.1 °F - 51.1 °F 20% 29.78 in 10.0 mi SSW 6.9 mph - N/A   Unknown
9:57 PM 96.1 °F - 45.0 °F 17% 29.79 in 10.0 mi SW 5.8 mph - N/A   Unknown
10:57 PM 93.9 °F - 39.0 °F 15% 29.80 in 10.0 mi SW 4.6 mph - N/A   Partly Cloudy
11:57 PM 93.0 °F - 39.0 °F 15% 29.81 in 10.0 mi Calm Calm - N/A   Unknown